SCP
0 0 0 0 0 0 0 0 0 0 0 0 0 0 0 0 0 0 0 0 0 0 0 0 0 0 0 0 0 0 0 0 0 0 0 0 0 0 0 0 0 0 0
0 0 0 0 0 0 0 0 0 0 0 0 0 0 0 0 0 0 0 0 0 0 0 0 0 0 0 0 0 0 0 0 0 0 0 0 0 0 0 0 0 0 0
0 0 0 0 0 0 0 0 0 0 0 0 0 0 0 0 0 0 0 0 0 0 0 0 0 0 0 0 0 0 0 0 0 0 0 0 0 0 0 0 0 0 0
0 0 0 0 0 0 0 0 0 0 0 0 0 0 0 0 0 0 0 0 0 0 0 0 0 0 0 0 0 0 0 0 0 0 0 0 0 0 0 0 0 0 0
0 0 0 0 0 0 0 0 0 0 0 0 0 0 0 0 0 0 0 0 0 0 0 0 0 0 0 0 0 0 0 0 0 0 0 0 0 0 0 0 0 0 0
0 0 0 0 0 0 0 0 0 0 0 0 0 0 0 0 0 0 0 0 0 0 0 0 0 0 0 0 0 0 0 0 0 0 0 0 0 0 0 0 0 0 0
0 0 0 0 0 0 0 0 0 0 0 0 0 0 0 0 0 0 0 0 0 0 0 0 0 0 0 0 0 0 0 0 0 0 0 0 0 0 0 0 0 0 0
0 0 0 0 0 0 0 0 0 0 0 0 0 0 0 0 0 0 0 0 0 0 0 0 0 0 0 0 0 0 0 0 0 0 0 0 0 0 0 0 0 0 0
0 0 0 0 0 0 0 0 0 0 0 0 0 0 0 0 0 0 0 0 0 0 0 0 0 0 0 0 0 0 0 0 0 0 0 0 0 0 0 0 0 0 0
0 0 0 0 0 0 0 0 0 0 0 0 0 0 0 0 0 0 0 0 0 0 0 0 0 0 0 0 0 0 0 0 0 0 0 0 0 0 0 0 0 0 0
0 0 0 0 0 0 0 0 0 0 0 0 0 0 0 0 0 0 0 0 0 0 0 0 0 0 0 0 0 0 0 0 0 0 0 0 0 0 0 0 0 0 0
0 0 0 0 0 0 0 0 0 0 0 0 0 0 0 0 0 0 0 0 0 0 0 0 0 0 0 0 0 0 0 0 0 0 0 0 0 0 0 0 0 0 0
0 0 0 0 0 0 0 0 0 0 0 0 0 0 0 0 0 0 0 0 0 0 0 0 0 0 0 0 0 0 0 0 0 0 0 0 0 0 0 0 0 0 0
0 0 0 0 0 0 0 0 0 0 0 0 0 0 0 0 0 0 0 0 0 0 0 0 0 0 0 0 0 0 0 0 0 0 0 0 0 0 0 0 0 0 0
0 0 0 0 0 0 0 0 0 0 0 0 0 0 0 0 0 0 0 0 0 0 0 0 0 0 0 0 0 0 0 0 0 0 0 0 0 0 0 0 0 0 0
0 0 0 0 0 0 0 0 0 0 0 0 0 0 0 0 0 0 0 0 0 0 0 0 0 0 0 0 0 0 0 0 0 0 0 0 0 0 0 0 0 0 0
0 0 0 0 0 0 0 0 0 0 0 0 0 0 0 0 0 0 0 0 0 0 0 0 0 0 0 0 0 0 0 0 0 0 0 0 0 0 0 0 0 0 0
0 0 0 0 0 0 0 0 0 0 0 0 0 0 0 0 0 0 0 0 0 0 0 0 0 0 0 0 0 0 0 0 0 0 0 0 0 0 0 0 0 0 0
0 0 0 0 0 0 0 0 0 0 0 0 0 0 0 0 0 0 0 0 0 0 0 0 0 0 0 0 0 0 0 0 0 0 0 0 0 0 0 0 0 0 0
0 0 0 0 0 0 0 0 0 0 0 0 0 0 0 0 0 0 0 0 0 0 0 0 0 0 0 0 0 0 0 0 0 0 0 0 0 0 0 0 0 0 0
-0 -0 0 0 0 0 0 0 0 0 0 0 0 0 0 0 0 0 0 0 0 0 0 0 0 0 0 0 0 0 0 0 0 0 0 0 0 0 0 0 0 0 0
-0 -0 0 0 0 0 0 0 0 0 0 0 0 0 0 0 0 0 0 0 0 0 0 0 0 0 0 0 0 0 0 0 0 0 0 0 0 0 0 0 0 0 0
-0 0 0 0 0 0 0 0 0 0 0 0 0 0 0 0 0 0 0 0 0 0 0 0 0 0 0 0 0 0 0 0 0 0 0 0 0 0 0 0 0 0 0
0 0 0 0 0 0 0 0 0 0 0 0 0 0 0 0 0 0 0 0 0 0 0 0 0 0 0 0 0 0 0 0 0 0 0 0 0 0 0 0 0 0 0
0 0 0 0 0 0 0 0 0 0 0 0 0 0 0 0 0 0 0 0 0 0 0 0 0 0 0 0 0 0 0 0 0 0 0 0 0 0 0 0 0 0 0
0 0 0 0 0 0 0 0 0 0 0 0 0 0 0 0 0 0 0 0 0 0 0 0 0 0 0 0 0 0 0 0 0 0 0 0 0 0 0 0 0 0 0
Wind_Speed
2 3 4 6 7 7 8 9 9 9 9 9 10 9 9 8 9 9 9 10 10 10 11 11 12 12 13 14 14 15 15 15 16 15 15 14 15 15 15 15 13 10 16
1 1 4 6 7 8 8 8 9 9 9 8 9 9 9 8 8 8 9 9 10 10 11 11 11 12 13 13 14 14 15 15 15 14 12 11 12 14 15 14 13 10 15
2 2 4 7 7 8 8 8 8 9 8 8 8 8 8 8 7 8 8 9 10 10 10 10 11 11 12 13 13 13 14 14 14 13 11 6 8 14 14 14 14 15 15
3 3 4 7 7 7 8 8 8 8 8 8 7 7 7 7 7 7 7 8 9 9 9 10 10 11 11 12 12 13 13 13 12 11 6 5 5 12 13 13 14 14 14
3 3 4 7 8 7 7 7 8 7 8 8 7 7 7 7 7 7 7 7 8 8 9 9 9 10 10 11 11 12 12 12 11 9 5 5 5 12 13 13 13 13 14
3 3 4 7 7 7 7 7 7 7 7 7 7 6 6 7 7 7 7 7 7 8 9 9 9 9 9 9 10 11 12 11 9 5 4 4 4 11 13 13 13 13 13
3 3 4 7 7 7 7 7 6 6 7 7 7 7 6 6 6 6 6 7 7 7 8 9 9 9 8 9 9 10 11 10 7 5 4 4 5 11 12 12 12 13 12
3 3 3 6 7 7 7 7 7 6 6 6 6 6 6 6 5 5 6 6 6 6 7 8 8 8 8 8 9 10 10 9 7 5 4 3 7 11 12 12 12 12 12
3 3 3 3 4 6 7 7 7 7 7 6 6 6 6 6 5 5 5 5 6 6 7 7 8 8 8 8 9 9 8 9 5 3 4 3 7 10 11 12 11 11 11
4 4 3 3 3 3 3 6 7 7 7 7 7 7 7 6 4 4 4 5 5 6 6 7 7 7 7 8 8 8 8 6 4 3 2 3 8 10 11 11 11 11 10
5 4 3 3 3 3 3 4 5 6 6 6 5 6 5 4 2 2 3 5 5 5 6 6 7 7 7 6 7 7 6 3 3 2 2 5 8 9 10 11 11 10 10
3 3 3 3 2 2 2 2 2 2 3 3 3 3 2 3 2 2 3 4 4 4 4 5 6 6 5 3 4 5 3 3 2 2 2 6 8 9 10 10 10 10 9
1 2 2 2 2 2 1 1 1 1 2 2 3 3 2 2 2 2 1 2 2 3 2 3 4 3 2 2 2 2 3 2 2 1 2 5 7 9 9 9 9 9 8
1 1 2 2 2 2 1 1 1 1 1 1 2 2 1 1 2 1 1 1 1 1 1 2 1 2 3 3 3 3 3 2 2 1 2 4 6 8 9 9 9 8 8
2 1 1 1 2 2 1 1 1 1 1 1 1 1 1 1 1 1 1 1 0 1 2 1 2 2 3 3 3 3 3 3 2 2 2 4 5 7 8 8 8 8 8
2 1 1 1 1 1 1 1 0 0 0 1 1 1 1 1 1 1 1 1 0 0 1 2 2 2 2 2 3 3 3 2 2 2 2 2 4 6 7 7 7 7 7
2 1 1 1 1 1 1 1 1 0 0 0 0 1 1 1 1 1 0 0 0 0 1 2 2 2 2 2 2 2 2 2 2 2 2 2 2 4 6 7 7 7 7
2 1 0 1 1 1 1 1 1 1 0 0 0 0 1 1 1 1 0 0 0 0 1 2 2 3 2 2 1 1 1 2 2 2 2 2 2 2 3 6 6 6 5
2 2 0 0 0 0 1 1 1 0 0 0 0 0 0 0 1 1 0 0 0 0 1 2 2 3 3 2 2 1 1 1 2 3 3 3 3 2 2 4 5 5 5
2 2 1 1 0 1 0 0 1 1 0 0 0 0 0 0 0 1 0 0 1 1 1 1 2 2 3 3 3 2 1 1 1 2 3 3 3 3 3 3 2 2 4
1 1 1 1 2 2 1 1 1 1 1 1 1 1 0 0 0 1 0 1 1 1 1 2 2 3 2 3 3 2 2 2 2 1 2 2 2 2 3 3 2 1 1
1 2 2 2 3 3 2 2 2 1 1 1 1 1 1 1 1 1 1 1 1 2 2 2 2 2 2 2 4 4 2 1 1 1 1 2 2 2 2 3 2 2 1
2 2 2 3 3 3 2 1 1 0 0 1 1 1 1 2 1 1 1 2 2 2 3 2 3 3 3 2 2 3 4 3 1 0 1 1 2 2 2 2 2 1 1
3 3 3 3 3 3 3 3 3 2 2 2 2 2 2 2 2 2 2 2 2 2 3 3 2 3 4 4 2 0 1 3 3 2 1 1 2 2 2 2 2 1 1
2 2 3 4 3 3 3 4 4 3 2 2 1 2 2 2 2 2 2 2 3 3 4 4 3 3 3 4 3 2 1 1 1 3 3 2 1 2 2 2 2 2 1
2 2 3 3 3 3 3 4 4 4 4 3 3 3 2 2 2 3 3 3 3 3 4 4 4 5 4 3 2 3 3 3 3 3 3 4 3 2 2 2 2 2 1
Wind_Direction
309 315 9 45 55 58 58 55 56 57 58 60 64 67 74 81 86 88 89 91 93 97 98 96 96 95 94 92 91 90 89 86 84 82 80 81 84 84 83 83 80 77 84
223 320 46 53 60 62 60 57 54 54 58 61 62 65 68 77 85 89 92 94 93 92 97 99 98 97 96 95 93 91 90 88 86 83 79 76 81 85 86 86 84 84 84
73 39 53 51 62 66 63 60 57 54 55 60 62 65 68 74 84 86 92 95 94 92 93 97 99 99 98 95 94 93 92 90 88 86 82 72 82 87 88 88 86 86 86
70 56 51 51 60 66 65 63 59 56 53 55 61 65 70 75 79 88 87 95 96 94 94 96 98 101 98 97 96 96 95 92 87 87 76 69 80 91 90 89 88 88 87
67 51 47 54 56 60 63 63 61 59 56 53 56 65 69 76 78 84 85 89 93 94 95 96 97 99 98 98 99 100 96 90 83 82 71 70 78 93 92 90 90 89 88
67 51 53 56 55 55 60 63 61 61 60 55 52 57 68 75 79 82 80 84 91 92 97 99 99 97 97 99 102 101 97 88 79 75 69 73 82 97 96 95 94 93 91
68 49 58 55 54 54 57 59 58 61 61 55 52 48 57 69 78 79 81 82 90 96 96 98 98 95 95 98 102 100 98 89 84 75 71 76 92 102 101 99 97 96 93
82 63 55 57 53 49 50 54 53 56 62 58 54 46 45 52 71 75 80 85 90 99 105 103 99 94 89 92 95 96 97 94 92 85 77 83 101 106 106 102 98 98 95
73 64 43 42 51 48 43 44 48 49 49 51 49 42 40 37 54 76 75 83 92 98 108 108 104 96 91 87 86 88 90 88 87 86 92 91 105 109 108 105 102 101 100
62 58 50 38 37 40 43 46 44 47 44 41 41 33 30 27 35 67 71 75 94 101 110 110 105 99 89 87 86 84 84 85 84 84 86 104 111 114 112 111 109 105 103
40 38 43 42 35 33 44 50 43 43 40 34 33 32 27 7 2 55 65 72 82 99 113 113 106 99 88 85 89 85 79 76 86 91 100 114 121 120 117 115 112 108 105
31 24 34 36 37 36 40 41 36 35 29 25 21 17 17 6 0 32 52 63 70 83 103 109 102 97 87 85 86 83 78 78 80 92 109 122 127 125 120 117 115 113 111
96 31 30 30 37 47 48 45 31 18 18 20 16 15 13 15 3 18 46 48 62 75 97 103 100 92 84 87 90 91 89 85 79 78 103 120 128 128 124 122 120 119 117
113 44 20 29 44 41 53 53 50 31 20 12 5 15 28 23 7 5 46 36 64 80 98 101 96 92 86 88 92 95 90 87 85 75 88 108 123 128 127 127 125 122 121
104 61 27 21 47 36 44 42 45 27 15 6 3 360 43 51 13 8 41 34 48 97 116 115 105 98 92 90 90 94 93 87 84 83 81 96 113 124 126 129 129 126 122
130 111 41 23 48 45 45 41 30 23 358 16 357 351 40 65 40 6 33 33 20 124 140 142 135 127 116 105 94 92 96 97 89 93 92 95 102 112 123 127 131 129 125
162 149 112 33 45 60 46 45 31 12 36 356 321 360 36 52 77 16 6 47 334 165 136 130 123 113 113 105 98 95 105 102 110 109 105 95 97 102 112 120 121 127 128
153 150 169 39 24 44 25 15 18 10 357 300 329 9 22 55 94 71 329 230 318 156 141 143 143 123 122 115 112 103 110 112 119 122 113 102 91 91 105 106 109 115 125
163 161 146 103 19 42 12 357 351 354 336 289 336 344 334 28 92 104 342 271 182 107 126 145 146 144 141 131 131 121 111 115 129 126 119 112 102 93 93 101 101 101 105
167 172 182 183 277 243 239 352 351 353 314 316 307 291 304 294 112 108 1 273 166 121 102 133 143 140 147 148 130 97 94 112 125 133 136 122 113 109 103 97 100 101 97
161 185 215 213 230 211 205 221 257 297 303 300 263 248 241 283 170 150 220 241 161 145 155 147 145 140 146 144 118 97 56 71 111 132 132 124 116 119 112 105 94 95 110
201 217 248 239 234 220 212 220 216 227 244 242 261 260 221 209 221 192 185 216 189 160 156 146 142 152 160 153 142 145 135 115 39 101 131 136 137 124 116 115 112 109 104
236 237 256 257 243 228 220 205 193 191 284 279 276 270 254 221 214 216 214 206 203 181 176 173 168 153 166 179 163 159 160 182 168 314 157 147 150 142 142 137 129 128 127
255 261 271 265 244 234 213 199 195 200 219 229 232 250 259 231 213 214 218 206 204 199 185 183 177 172 168 177 184 170 152 147 160 171 217 190 175 167 166 162 157 170 161
262 262 274 265 247 238 223 208 205 211 221 220 220 237 249 240 218 203 205 207 204 199 187 184 184 180 176 178 182 172 145 146 144 158 185 190 205 208 192 185 179 192 196
276 267 271 257 252 240 228 217 212 210 210 213 219 220 236 242 232 213 205 216 211 201 192 189 194 190 187 182 185 178 172 174 173 163 175 185 203 225 209 197 186 190 195